Weather History for KBKE - April, 2014

Change the Weather History Date:

Tuesday, April 22, 2014

  Actual Average Record
Temperature  
Mean Temperature 40 °F 45 °F  
Max Temperature 55 °F 59 °F 82 °F (1977)
Min Temperature 25 °F 30 °F 18 °F (1968)
Degree Days  
Heating Degree Days 25 20  
Month to date heating degree days 455 492  
Since 1 July heating degree days 6736 6860  
Cooling Degree Days 0 0  
Month to date cooling degree days 0 0  
Year to date cooling degree days 0 0  
Moisture  
Dew Point 28 °F    
Average Humidity 61    
Maximum Humidity 81    
Minimum Humidity 40    
Precipitation  
Precipitation T in 0.03 in 0.53 in (1979)
Month to date precipitation 0.15 0.58  
Year to date precipitation 2.88 2.78  
Sea Level Pressure  
Sea Level Pressure 29.79 in    
Wind  
Wind Speed 14 mph (WNW)    
Max Wind Speed 32 mph    
Max Gust Speed 40 mph    
Visibility 10 miles    
Events Rain    
T = Trace of Precipitation, MM = Missing Value Source: NWS Daily Summary

Daily Weather History Graph

Daily Weather History Graph

Search for Another Location

Airport or City:

Trip Planner

Search our weather history database for the weather conditions in past years. The results will help you decide how hot, cold, wet, or windy it might be!

Date:

Astronomy

Apr. 22, 2014 Rise Set
Actual Time 5:54 AM PDT 7:45 PM PDT
Civil Twilight 5:23 AM PDT 8:16 PM PDT
Nautical Twilight 4:45 AM PDT 8:55 PM PDT
Astronomical Twilight 4:03 AM PDT 9:36 PM PDT
Moon 2:05 AM PDT (4/22) 12:34 PM PDT (4/22)
Length of Visible Light 14h 53m
Length of Day
13h 50m
Last Quarter, 45% of the Moon is Illuminated
Apr 22
Last Quarter
Apr 28
New
May 6
First Quarter
May 14
Full
May 21
Last Quarter

Hourly Weather History & Observations

Time (PDT) Temp. Windchill Dew Point Humidity Pressure Visibility Wind Dir Wind Speed Gust Speed Precip Events Conditions
12:53 AM 46.9 °F - - N/A% 29.71 in 10.0 mi ESE 4.6 mph - N/A   Overcast
1:53 AM 50.0 °F - - N/A% 29.70 in 10.0 mi SE 6.9 mph - N/A   Mostly Cloudy
2:53 AM 52.0 °F - - N/A% 29.71 in 10.0 mi SW 25.3 mph 29.9 mph N/A   Overcast
3:53 AM 48.9 °F - - N/A% 29.71 in 10.0 mi Variable 4.6 mph - N/A   Overcast
4:53 AM 50.0 °F - - N/A% 29.70 in 10.0 mi South 18.4 mph 26.5 mph N/A   Overcast
5:53 AM 48.9 °F - - N/A% 29.68 in 10.0 mi South 16.1 mph - N/A   Overcast
6:53 AM 48.0 °F - - N/A% 29.68 in 10.0 mi SSE 10.4 mph - N/A   Clear
7:53 AM 48.9 °F - - N/A% 29.70 in 10.0 mi SSE 13.8 mph - N/A   Overcast
8:53 AM 45.0 °F 37.4 °F 35.1 °F 68% 29.73 in 10.0 mi WNW 18.4 mph 25.3 mph N/A   Mostly Cloudy
9:53 AM 45.0 °F 39.3 °F 35.1 °F 68% 29.74 in 10.0 mi NW 11.5 mph - N/A   Overcast
10:53 AM 44.1 °F 39.5 °F 36.0 °F 73% 29.75 in 10.0 mi NNW 8.1 mph - 0.00 in Rain Light Rain
11:53 AM 43.0 °F 35.4 °F 36.0 °F 76% 29.76 in 10.0 mi NNW 16.1 mph 25.3 mph 0.00 in Rain Light Rain
12:53 PM 44.1 °F 35.2 °F 30.0 °F 58% 29.78 in 10.0 mi NW 23.0 mph 32.2 mph 0.00 in   Overcast
1:53 PM 46.9 °F - 27.0 °F 46% 29.76 in 10.0 mi NNW 24.2 mph 31.1 mph N/A   Overcast
2:53 PM 45.0 °F 35.2 °F 26.1 °F 48% 29.78 in 10.0 mi NW 29.9 mph 38.0 mph N/A   Overcast
3:53 PM 46.9 °F - 27.0 °F 46% 29.79 in 10.0 mi NW 25.3 mph 31.1 mph N/A   Mostly Cloudy
4:53 PM 46.0 °F 38.3 °F 28.0 °F 50% 29.81 in 10.0 mi NW 20.7 mph - N/A   Scattered Clouds
5:53 PM 45.0 °F 37.9 °F 25.0 °F 46% 29.83 in 10.0 mi NW 16.1 mph 26.5 mph N/A   Mostly Cloudy
6:53 PM 45.0 °F 38.2 °F 21.0 °F 39% 29.84 in 10.0 mi NW 15.0 mph - N/A   Clear
7:53 PM 39.0 °F 34.0 °F 21.9 °F 50% 29.88 in 10.0 mi WNW 6.9 mph - N/A   Scattered Clouds
8:53 PM 35.1 °F 27.9 °F 24.1 °F 64% 29.92 in 10.0 mi NNW 9.2 mph - N/A   Clear
9:53 PM 34.0 °F 28.8 °F 25.0 °F 70% 29.95 in 10.0 mi South 5.8 mph - N/A   Clear
10:53 PM 28.9 °F 25.2 °F 23.0 °F 78% 29.97 in 10.0 mi Variable 3.5 mph - N/A   Clear
11:53 PM 26.1 °F 19.4 °F 21.0 °F 81% 29.98 in 10.0 mi SE 5.8 mph - N/A   Clear